OSCAR 7 1 7530U 74089B 26237.51062100 -.00000023 00000-0 14777-3 0 9993 2 7530 101.9921 251.4820 0012242 0.8898 166.2006 12.53699270369201 OSCAR 11 (UOSAT 2) 1 14781U 84021B 26237.35138545 .00001171 00000-0 12429-3 0 9991 2 14781 97.8131 202.1863 0006623 326.2390 33.8406 14.90944286267439 OSCAR 19 (LUSAT) 1 20442U 90005G 26237.04320253 .00000074 00000-0 42953-4 0 9993 2 20442 98.8841 260.7408 0011651 9.8689 350.2721 14.34139632912269 EYESAT A 1 22825U 93061C 26237.15414466 .00000065 00000-0 41650-4 0 9990 2 22825 98.6827 304.5237 0007272 255.9532 104.0843 14.30957215716869 ITAMSAT 1 22826U 93061D 26237.46247517 .00000065 00000-0 41460-4 0 9995 2 22826 98.6775 304.7564 0007925 235.8836 124.1596 14.31385784717222 RADIO ROSTO 1 23439U 94085A 26237.47082775 -.00000060 00000-0 -50799-3 0 9998 2 23439 64.8152 191.1620 0158488 351.3029 8.5156 11.27584115303710 JAS 2 1 24278U 96046B 26237.36397844 .00000007 00000-0 46340-4 0 9990 2 24278 98.5187 76.7535 0348794 276.9492 79.2100 13.53277117482527 TECHSAT 1B 1 25397U 98043D 26237.39393177 .00000046 00000-0 40069-4 0 9995 2 25397 99.0129 231.9166 0001947 49.5442 310.5906 14.24439747461184 ISS (ZARYA) 1 25544U 98067A 26237.53157715 .00007217 00000-0 13603-3 0 9997 2 25544 51.6331 316.8722 0007739 83.0953 277.0916 15.49622505582505 PCSAT 1 26931U 01043C 26235.97866662 .00000080 00000-0 60923-4 0 9999 2 26931 67.0496 68.9288 0005650 270.3796 89.6659 14.31977234300159 SAUDISAT 1C 1 27607U 02058C 26237.33781020 .00000818 00000-0 11381-3 0 9995 2 27607 64.5511 275.0136 0073063 249.7916 109.5323 14.83176312274717 CUTE-1 1 27844U 03031E 26237.51147310 .00000229 00000-0 11777-3 0 9993 2 27844 98.6766 245.2071 0009337 351.9381 8.1646 14.24371783201549 CUBESAT XI 4 1 27848U 03031J 26237.46457003 .00000198 00000-0 10609-3 0 9992 2 27848 98.6795 244.8175 0009674 10.8530 349.2856 14.23651882201234 MOZHAYETS 4 1 27939U 03042A 26237.54773677 .00000249 00000-0 46570-4 0 9996 2 27939 98.3487 63.8814 0012374 52.3200 32.4397 14.73571264225760 CUBESAT XI 5 1 28895U 05043F 26237.36419793 .00001079 00000-0 17699-3 0 9998 2 28895 98.3070 34.4804 0013693 351.6144 8.4832 14.72786905111939 CUTE-1.7+APD 2 1 32785U 08021C 26237.50906499 .00004720 00000-0 29429-3 0 9990 2 32785 97.8338 220.4243 0009611 143.7253 216.4629 15.10007527995656 SEEDS 1 32791U 08021J 26237.41702366 .00018518 00000-0 54848-3 0 9997 2 32791 97.7552 238.7512 0004709 80.3531 279.8243 15.34917306997905 YUBELEINY 1 32953U 08025A 26237.55107544 -.00000051 00000-0 -43945-3 0 9994 2 32953 82.5066 312.3011 0020202 157.5623 202.6345 12.43181850828314 KKS-1 (KISEKI) 1 33499U 09002H 26237.47331723 .00001085 00000-0 13938-3 0 9990 2 33499 98.1157 161.0097 0009284 68.9804 291.2401 14.83272455946462 SWISSCUBE 1 35932U 09051B 26237.47268477 .00000819 00000-0 17093-3 0 9993 2 35932 98.3960 146.5478 0007066 8.6608 351.4713 14.62593917899288 BEESAT 1 35933U 09051C 26237.31327935 .00000670 00000-0 14392-3 0 9996 2 35933 98.3887 145.8750 0005881 25.4808 334.6681 14.61814298899288 ITUPSAT 1 1 35935U 09051E 26237.22786161 .00000631 00000-0 14006-3 0 9997 2 35935 98.3967 144.9052 0008270 32.8637 327.3076 14.60527291898819 XIWANG-1 (HOPE-1) 1 36122U 09072B 26237.47903788 -.00000230 00000-0 -48537-3 0 9995 2 36122 100.4073 190.2189 0008199 76.3513 283.8513 13.16439542802124 TISAT 1 1 36799U 10035E 26237.37362264 .00021333 00000-0 64646-3 0 9997 2 36799 98.0733 190.2127 0003181 49.1369 311.0147 15.34175295878308 JUGNU 1 37839U 11058B 26237.38722058 .00000389 00000-0 63382-4 0 9996 2 37839 19.9598 248.0066 0018756 120.3453 270.3077 14.13792779768832 SRMSAT 1 37841U 11058D 26237.49729565 .00000377 00000-0 60568-4 0 9991 2 37841 19.9733 359.9436 0011603 246.8568 179.3586 14.11588422767629 HORYU 2 1 38340U 12025D 26237.35068167 .00002439 00000-0 25021-3 0 9995 2 38340 98.2260 13.1685 0007057 323.2641 36.8091 14.91422425759036 STRAND 1 1 39090U 13009E 26237.05030199 .00000204 00000-0 82999-4 0 9998 2 39090 98.3960 55.6074 0009252 32.4047 327.7706 14.37197535706957 CUBEBUG 1 1 39153U 13018D 26237.39325568 .00002964 00000-0 25862-3 0 9992 2 39153 98.1731 40.4663 0010065 278.1810 81.8269 14.97646535721424 ZACUBE 1 39417U 13066B 26236.85384148 .00005302 00000-0 40596-3 0 9997 2 39417 97.8038 199.5196 0041906 23.2843 337.0267 15.01612971691033 TRITON 1 1 39427U 13066M 26237.50961880 .00003466 00000-0 41430-3 0 9992 2 39427 97.8175 145.7212 0090001 9.3782 350.9085 14.81960021684353 GOMX 1 1 39430U 13066Q 26237.50042140 .00001301 00000-0 20100-3 0 9992 2 39430 97.6452 73.5944 0127222 214.2485 145.0470 14.69631040680096 CUBEBUG 2 1 39440U 13066AA 26237.31652301 .00002297 00000-0 21337-3 0 9996 2 39440 97.8944 186.6258 0057530 156.6743 203.7107 14.94159640687319 FUNCUBE 1 1 39444U 13066AE 26237.37558668 .00007067 00000-0 42887-3 0 9990 2 39444 97.8340 210.3332 0034594 331.2085 28.7233 15.10349077690106 UWE-3 1 39446U 13066AG 26237.31936153 .00002976 00000-0 25460-3 0 9997 2 39446 97.8759 193.8996 0050349 88.6958 272.0031 14.97420104687922 UNISAT 6 1 40012U 14033C 26237.37807119 .00003090 00000-0 33234-3 0 9994 2 40012 97.7961 28.9224 0044330 198.5242 161.4364 14.88529191656459 DUCHIFAT 1 1 40021U 14033M 26237.14481635 .00366648 00000-0 14053-2 0 9998 2 40021 98.0331 306.9909 0005949 211.7167 148.3745 15.86494321666598 QB50P1 1 40025U 14033R 26235.48502800 .00006735 00000-0 32359-3 0 9993 2 40025 98.0979 251.4010 0008563 7.5646 352.5714 15.19176645663241 OBJECT G 1 40905U 15049G 26237.48793542 .00056183 00000-0 42384-3 0 9996 2 40905 97.4488 286.0070 0002183 328.3946 31.7185 15.72323287607314 LILACSAT 2 1 40908U 15049K 26237.55804752 .00016906 00000-0 26614-3 0 9990 2 40908 97.4596 277.1225 0006434 17.6067 342.5408 15.53640325606511 LQSAT 1 40958U 15057A 26237.51818846 .00000346 00000-0 56034-4 0 9990 2 40958 97.6741 227.4828 0018358 50.2117 310.0707 14.76852487585543 CHUBUSAT 2 1 41338U 16012B 26237.30273097 .00005083 00000-0 21516-3 0 9994 2 41338 30.9965 227.5973 0008210 66.6784 293.4720 15.21497064578956 CHUBUSAT 3 1 41339U 16012C 26237.34020190 .00003869 00000-0 17483-3 0 9991 2 41339 31.0038 238.6289 0008605 50.6591 309.4812 15.19058064578725 PRATHAM 1 41783U 16059A 26237.39499449 .00000615 00000-0 11654-3 0 9997 2 41783 97.8382 231.2321 0031249 1.1198 359.0072 14.67274644529664 ALSAT 1N 1 41789U 16059G 26237.50750414 .00000697 00000-0 12533-3 0 9995 2 41789 97.8052 237.7876 0025233 329.6070 30.3672 14.69407204530189